Location: Denton Manor
(38.5571°N, 75.1052°W)
Time: 00:35:03
(UTC+00:00)

BlueWalker 3 - Visible Passes

Search period start: 08 October 2024 00:00
Search period end: 18 October 2024 00:00
Orbit: 473 x 485 km, 53.2° (Epoch: 07 October)

Date Brightness Start Highest point End Pass type
(mag) Time Alt. Az. Time Alt. Az. Time Alt. Az.
08 Oct 4.8 08:23:05 15° NE 08:23:05 15° NE 08:23:45 10° NE visible
08 Oct 3.7 09:57:17 15° NW 09:58:27 17° NNW 10:00:56 10° NNE visible
09 Oct 3.7 09:30:19 18° NNW 09:30:19 18° NNW 09:32:44 10° NNE visible
10 Oct 4.2 09:03:14 16° N 09:03:14 16° N 09:04:30 10° NNE visible
11 Oct 4.9 08:36:05 11° NNE 08:36:05 11° NNE 08:36:13 10° NNE visible
17 Oct 4.0 10:36:41 10° NNW 10:39:28 20° NNE 10:42:13 10° ENE visible
